Location: Les Salelles
(44.4192°N, 4.1044°E)
Time: 17:01:36
(UTC+00:00)

CZ-2C R/B - Pass Details

Date: 20 January 2021
Orbit: 785 x 870 km, 98.2° (Epoch: 26 February)

Event Time Altitude Azimuth Distance (km) Brightness Sun altitude
Exits shadow 19:27:18 68° 313° (NW) 924 2.9 -30.2°
Maximum altitude 19:27:38 70° 287° (WNW) 913 2.9 -30.2°
Drops below altitude 10° 19:33:11 10° 204° (SSW) 2,505 5.4 -31.2°
Sets 19:35:35 0° 202° (SSW) 3,442 6.1 -31.6°
